Jordan, MT

10:18 PM MDT on March 24, 2017 (GMT -0600)
Jordan

Weather History for KJDN - September, 2013

Change the Weather History Date:

Monday, September 16, 2013

  Actual Average Record
Temperature  
Mean Temperature 70 °F 57 °F  
Max Temperature 86 °F 73 °F 97 °F (1979)
Min Temperature 54 °F 41 °F 23 °F (1936)
Degree Days  
Heating Degree Days 0 9  
Month to date heating degree days 11 98  
Since 1 July heating degree days 24 163  
Cooling Degree Days 5 1  
Month to date cooling degree days 76 23  
Year to date cooling degree days 519 416  
Growing Degree Days 20 (Base 50)    
Moisture  
Dew Point 51 °F    
Average Humidity 55    
Maximum Humidity 77    
Minimum Humidity 32    
Precipitation  
Precipitation 0.00 in 0.04 in 0.33 in (1950)
Month to date precipitation 0.94 0.61  
Year to date precipitation 15.24 10.53  
Snow  
Snow 0.00 in - - ()
Month to date snowfall 0.0  
Since 1 July snowfall 0.0  
Since 1 September snowfall 0.0  
Snow Depth 0.00 in    
Sea Level Pressure  
Sea Level Pressure 29.83 in    
Wind  
Wind Speed 9 mph (SSE)    
Max Wind Speed 18 mph    
Max Gust Speed 23 mph    
T = Trace of Precipitation, MM = Missing Value Source: NWS Daily Summary

Daily Weather History Graph

Daily Weather History Graph

Search for Another Location

Airport or City:

Trip Planner

Search our weather history database for the weather conditions in past years. The results will help you decide how hot, cold, wet, or windy it might be!

Date:

Astronomy

Sep. 16, 2013 Rise Set
Actual Time 6:46 AM MDT 7:17 PM MDT
Civil Twilight 6:16 AM MDT 7:47 PM MDT
Nautical Twilight 5:39 AM MDT 8:24 PM MDT
Astronomical Twilight 5:01 AM MDT 9:01 PM MDT
Moon 5:35 PM MDT (9/16) 3:26 AM MDT (9/16)
Length of Visible Light 13h 31m
Length of Day
12h 30m
Waxing Gibbous, 90% of the Moon is Illuminated
Sep 16
Waxing Gibbous
Sep 19
Full
Sep 26
Last Quarter
Oct 4
New
Oct 11
First Quarter

Hourly Weather History & Observations

Time (MDT) Temp. Heat Index Dew Point Humidity Pressure Visibility Wind Dir Wind Speed Gust Speed Precip Events Conditions
12:48 AM 57.0 °F - 48.0 °F 72% 30.01 in - East 6.9 mph - N/A   Unknown
1:48 AM 57.9 °F - 48.9 °F 72% 29.98 in - SE 9.2 mph - N/A   Unknown
2:48 AM 57.0 °F - 48.9 °F 74% 29.98 in - ENE 4.6 mph - N/A   Unknown
3:48 AM 55.9 °F - 48.9 °F 77% 29.96 in - ESE 6.9 mph - N/A   Unknown
4:48 AM 55.9 °F - 48.9 °F 77% 29.95 in - SE 6.9 mph - N/A   Unknown
5:48 AM 55.0 °F - 48.9 °F 80% 29.94 in - East 9.2 mph - N/A   Unknown
6:48 AM 55.0 °F - 48.9 °F 80% 29.93 in - SE 9.2 mph - N/A   Unknown
7:48 AM 57.0 °F - 50.0 °F 77% 29.93 in - SE 6.9 mph - N/A   Unknown
8:48 AM 63.0 °F - 52.0 °F 67% 29.91 in - SSE 13.8 mph - N/A   Unknown
9:48 AM 66.9 °F - 52.0 °F 59% 29.88 in - South 13.8 mph 20.7 mph N/A   Unknown
10:48 AM 71.1 °F - 53.1 °F 53% 29.87 in - South 10.4 mph - N/A   Unknown
11:48 AM 75.0 °F - 53.1 °F 46% 29.85 in - South 16.1 mph 20.7 mph N/A   Unknown
12:48 PM 79.0 °F - 54.0 °F 42% 29.81 in - SSE 16.1 mph 23.0 mph N/A   Unknown
1:48 PM 82.0 °F 81.2 °F 53.1 °F 37% 29.78 in - South 13.8 mph - N/A   Unknown
2:48 PM 84.0 °F 82.5 °F 53.1 °F 34% 29.76 in - South 16.1 mph 21.9 mph N/A   Unknown
3:48 PM 84.9 °F - 52.0 °F 32% 29.73 in - South 10.4 mph - N/A   Unknown
4:48 PM 84.9 °F - 52.0 °F 32% 29.72 in - South 13.8 mph - N/A   Unknown
5:48 PM 84.0 °F - 52.0 °F 33% 29.70 in - South 10.4 mph - N/A   Unknown
6:48 PM 79.0 °F - 52.0 °F 39% 29.71 in - South 8.1 mph - N/A   Unknown
7:48 PM 70.0 °F - 53.1 °F 55% 29.72 in - SSE 5.8 mph - N/A   Unknown
8:48 PM 71.1 °F - 53.1 °F 53% 29.72 in - SSE 3.5 mph - N/A   Unknown
9:48 PM 71.1 °F - 53.1 °F 53% 29.70 in - South 3.5 mph - N/A   Unknown
10:48 PM 66.0 °F - 52.0 °F 60% 29.71 in - Calm Calm - N/A   Unknown
11:48 PM 59.0 °F - 52.0 °F 78% 29.73 in - Calm Calm - N/A   Unknown